Weather History for Gillette, WY

Change the Weather History Date:

Friday, May 10, 2013

  Actual Average Record
Temperature  
Mean Temperature 56 °F 51 °F  
Max Temperature 72 °F 64 °F 92 °F (1934)
Min Temperature 40 °F 38 °F 22 °F (1927)
Degree Days  
Heating Degree Days 9 14  
Month to date heating degree days 166 155  
Since 1 July heating degree days 7128 7171  
Cooling Degree Days 0 0  
Month to date cooling degree days 0 0  
Year to date cooling degree days 0 0  
Growing Degree Days 7 (Base 50)    
Moisture  
Dew Point 36 °F    
Average Humidity 53    
Maximum Humidity 83    
Minimum Humidity 22    
Precipitation  
Precipitation 0.00 in 0.08 in 1.73 in (1985)
Month to date precipitation 0.02 0.69  
Year to date precipitation 3.14 3.90  
Sea Level Pressure  
Sea Level Pressure 30.17 in    
Wind  
Wind Speed 10 mph (North)    
Max Wind Speed 30 mph    
Max Gust Speed 36 mph    
Visibility 10 miles    
Events      
T = Trace of Precipitation, MM = Missing Value Source: NWS Daily Summary

Daily Weather History Graph

Daily Weather History Graph

Search for Another Location

Airport:

Trip Planner

Search our weather history database for the weather conditions in past years. The results will help you decide how hot, cold, wet, or windy it might be!

Date:

Astronomy

May. 10, 2013 Rise Set
Actual Time 5:40 AM MDT 8:17 PM MDT
Civil Twilight 5:07 AM MDT 8:50 PM MDT
Nautical Twilight 4:26 AM MDT 9:32 PM MDT
Astronomical Twilight 3:38 AM MDT 10:19 PM MDT
Moon 6:06 AM MDT (5/10) 9:09 PM MDT (5/10)
Length of Visible Light 15h 42m
Length of Day
14h 36m
New Moon, 1% of the Moon is Illuminated
May 10
New Moon
May 17
First Quarter
May 24
Full
May 31
Last Quarter
Jun 8
New

Hourly Weather History & Observations

Time (MDT) Temp. Windchill Dew Point Humidity Pressure Visibility Wind Dir Wind Speed Gust Speed Precip Events Conditions
12:53 AM 46.9 °F - 39.0 °F 74% 30.09 in 10.0 mi Calm Calm - N/A   Clear
1:53 AM 46.4 °F - 39.2 °F 76% 30.16 in 10.0 mi Calm Calm - N/A   Clear
2:53 AM 45.0 °F - 39.9 °F 82% 30.09 in 10.0 mi Calm Calm - N/A   Clear
3:53 AM 46.0 °F 41.0 °F 39.9 °F 79% 30.08 in 10.0 mi WSW 10.4 mph - N/A   Clear
4:53 AM 46.0 °F 39.9 °F 39.9 °F 79% 30.07 in 10.0 mi WSW 13.8 mph - N/A   Clear
5:53 AM 44.6 °F - 39.2 °F 81% 30.14 in 10.0 mi Calm Calm - N/A   Clear
6:53 AM 50.0 °F - 42.8 °F 76% 30.16 in 10.0 mi Calm Calm - N/A   Clear
7:53 AM 55.9 °F - 43.0 °F 62% 30.11 in 10.0 mi West 8.1 mph - N/A   Clear
8:53 AM 61.0 °F - 44.1 °F 54% 30.12 in 10.0 mi WNW 11.5 mph - N/A   Partly Cloudy
9:53 AM 64.0 °F - 41.0 °F 43% 30.12 in 10.0 mi North 12.7 mph - N/A   Partly Cloudy
10:53 AM 66.2 °F - 37.4 °F 35% 30.20 in 10.0 mi NNW 18.4 mph 25.3 mph N/A   Clear
11:53 AM 69.1 °F - 34.0 °F 27% 30.12 in 10.0 mi North 16.1 mph 29.9 mph N/A   Clear
12:53 PM 70.0 °F - 28.9 °F 22% 30.12 in 10.0 mi NNE 8.1 mph 21.9 mph N/A   Partly Cloudy
1:53 PM 69.1 °F - 28.9 °F 22% 30.12 in 10.0 mi North 9.2 mph 18.4 mph N/A   Mostly Cloudy
2:53 PM 66.9 °F - 37.9 °F 34% 30.16 in 10.0 mi NNE 15.0 mph 25.3 mph N/A   Mostly Cloudy
3:53 PM 70.0 °F - 37.0 °F 30% 30.14 in 10.0 mi North 17.3 mph 25.3 mph N/A   Scattered Clouds
4:53 PM 63.0 °F - 39.0 °F 41% 30.18 in 10.0 mi North 15.0 mph 23.0 mph N/A   Mostly Cloudy
5:53 PM 62.1 °F - 42.1 °F 48% 30.22 in 10.0 mi NE 13.8 mph - N/A   Unknown
6:53 PM 60.1 °F - 30.9 °F 33% 30.23 in 10.0 mi NNE 13.8 mph - N/A   Overcast
7:53 PM 57.0 °F - 33.1 °F 40% 30.25 in 10.0 mi NNE 17.3 mph - N/A   Overcast
8:53 PM 51.1 °F - 32.0 °F 48% 30.28 in 10.0 mi NNE 9.2 mph - N/A   Scattered Clouds
9:53 PM 50.0 °F - 30.0 °F 46% 30.30 in 10.0 mi NNE 6.9 mph - N/A   Overcast
10:53 PM 48.9 °F - 26.1 °F 41% 30.31 in 10.0 mi NE 8.1 mph - N/A   Mostly Cloudy
11:53 PM 46.0 °F 41.9 °F 27.0 °F 47% 30.32 in 10.0 mi North 8.1 mph - N/A   Overcast